Year,Month,Day,Hour,Minute,Value (Times are PST for temperature in C)
2009,06,19,00,00,14.70
2009,06,19,00,01,14.60
2009,06,19,00,02,14.60
2009,06,19,00,03,14.60
2009,06,19,00,04,14.50
2009,06,19,00,05,14.50
2009,06,19,00,06,14.40
2009,06,19,00,07,14.40
2009,06,19,00,08,14.30
2009,06,19,00,09,14.30
2009,06,19,00,10,14.30
2009,06,19,00,11,14.20
2009,06,19,00,12,14.10
2009,06,19,00,13,14.00
2009,06,19,00,14,13.90
2009,06,19,00,15,13.80
2009,06,19,00,16,13.70
2009,06,19,00,17,13.70
2009,06,19,00,18,13.60
2009,06,19,00,19,13.50
2009,06,19,00,20,13.50
2009,06,19,00,21,13.40
2009,06,19,00,22,13.40
2009,06,19,00,23,13.30
2009,06,19,00,24,13.30
2009,06,19,00,25,13.30
2009,06,19,00,26,13.20
2009,06,19,00,27,13.20
2009,06,19,00,28,13.20
2009,06,19,00,29,13.10
2009,06,19,00,30,13.10
2009,06,19,00,31,13.00
2009,06,19,00,32,13.00
2009,06,19,00,33,12.90
2009,06,19,00,34,12.90
2009,06,19,00,35,12.80
2009,06,19,00,36,12.80
2009,06,19,00,37,12.80
2009,06,19,00,38,12.80
2009,06,19,00,39,12.80
2009,06,19,00,40,12.70
2009,06,19,00,41,12.70
2009,06,19,00,42,12.70
2009,06,19,00,43,12.70
2009,06,19,00,44,12.70
2009,06,19,00,45,12.70
2009,06,19,00,46,12.60
2009,06,19,00,47,12.60
2009,06,19,00,48,12.60
2009,06,19,00,49,12.60
2009,06,19,00,50,12.60
2009,06,19,00,51,12.60
2009,06,19,00,52,12.60
2009,06,19,00,53,12.60
2009,06,19,00,54,12.60
2009,06,19,00,55,12.50
2009,06,19,00,56,12.50
2009,06,19,00,57,12.50
2009,06,19,00,58,12.50
2009,06,19,00,59,12.40
2009,06,19,01,00,12.40
2009,06,19,01,01,12.40
2009,06,19,01,02,12.40
2009,06,19,01,03,12.30
2009,06,19,01,04,12.30
2009,06,19,01,05,12.30
2009,06,19,01,06,12.20
2009,06,19,01,07,12.20
2009,06,19,01,08,12.10
2009,06,19,01,09,12.10
2009,06,19,01,10,12.10
2009,06,19,01,11,12.00
2009,06,19,01,12,12.00
2009,06,19,01,13,12.00
2009,06,19,01,14,11.90
2009,06,19,01,15,11.90
2009,06,19,01,16,11.90
2009,06,19,01,17,11.90
2009,06,19,01,18,11.90
2009,06,19,01,19,11.90
2009,06,19,01,20,11.80
2009,06,19,01,21,11.80
2009,06,19,01,22,11.80
2009,06,19,01,23,11.80
2009,06,19,01,24,11.70
2009,06,19,01,25,11.70
2009,06,19,01,26,11.70
2009,06,19,01,27,11.70
2009,06,19,01,28,11.70
2009,06,19,01,29,11.60
2009,06,19,01,30,11.60
2009,06,19,01,31,11.60
2009,06,19,01,32,11.50
2009,06,19,01,33,11.50
2009,06,19,01,34,11.50
2009,06,19,01,35,11.40
2009,06,19,01,36,11.40
2009,06,19,01,37,11.40
2009,06,19,01,38,11.30
2009,06,19,01,39,11.30
2009,06,19,01,40,11.30
2009,06,19,01,41,11.20
2009,06,19,01,42,11.20
2009,06,19,01,43,11.20
2009,06,19,01,44,11.20
2009,06,19,01,45,11.10
2009,06,19,01,46,11.10
2009,06,19,01,47,11.10
2009,06,19,01,48,11.10
2009,06,19,01,49,11.00
2009,06,19,01,50,11.00
2009,06,19,01,51,10.90
2009,06,19,01,52,10.90
2009,06,19,01,53,10.90
2009,06,19,01,54,10.90
2009,06,19,01,55,10.90
2009,06,19,01,56,10.90
2009,06,19,01,57,10.90
2009,06,19,01,58,11.00
2009,06,19,01,59,11.00
2009,06,19,02,00,11.00
2009,06,19,02,01,11.00
2009,06,19,02,02,11.00
2009,06,19,02,03,11.00
2009,06,19,02,04,11.10
2009,06,19,02,05,11.10
2009,06,19,02,06,11.10
2009,06,19,02,07,11.10
2009,06,19,02,08,11.10
2009,06,19,02,09,11.20
2009,06,19,02,10,11.20
2009,06,19,02,11,11.20
2009,06,19,02,12,11.20
2009,06,19,02,13,11.20
2009,06,19,02,14,11.20
2009,06,19,02,15,11.20
2009,06,19,02,16,11.20
2009,06,19,02,17,11.20
2009,06,19,02,18,11.10
2009,06,19,02,19,11.10
2009,06,19,02,20,11.10
2009,06,19,02,21,11.10
2009,06,19,02,22,11.10
2009,06,19,02,23,11.10
2009,06,19,02,24,11.10
2009,06,19,02,25,11.10
2009,06,19,02,26,11.00
2009,06,19,02,27,11.00
2009,06,19,02,28,11.00
2009,06,19,02,29,11.00
2009,06,19,02,30,10.90
2009,06,19,02,31,10.90
2009,06,19,02,32,10.90
2009,06,19,02,33,10.90
2009,06,19,02,34,10.80
2009,06,19,02,35,10.80
2009,06,19,02,36,10.80
2009,06,19,02,37,10.80
2009,06,19,02,38,10.80
2009,06,19,02,39,10.80
2009,06,19,02,40,10.80
2009,06,19,02,41,10.80
2009,06,19,02,42,10.80
2009,06,19,02,43,10.80
2009,06,19,02,44,10.80
2009,06,19,02,45,10.70
2009,06,19,02,46,10.70
2009,06,19,02,47,10.70
2009,06,19,02,48,10.80
2009,06,19,02,49,10.80
2009,06,19,02,50,10.80
2009,06,19,02,51,10.80
2009,06,19,02,52,10.80
2009,06,19,02,53,10.80
2009,06,19,02,54,10.80
2009,06,19,02,55,10.80
2009,06,19,02,56,10.80
2009,06,19,02,57,10.80
2009,06,19,02,58,10.90
2009,06,19,02,59,10.90
2009,06,19,03,00,10.90
2009,06,19,03,01,10.90
2009,06,19,03,02,10.90
2009,06,19,03,03,10.90
2009,06,19,03,04,11.00
2009,06,19,03,05,11.10
2009,06,19,03,06,11.10
2009,06,19,03,07,11.10
2009,06,19,03,08,11.20
2009,06,19,03,09,11.20
2009,06,19,03,10,11.20
2009,06,19,03,11,11.20
2009,06,19,03,12,11.20
2009,06,19,03,13,11.20
2009,06,19,03,14,11.20
2009,06,19,03,15,11.20
2009,06,19,03,16,11.20
2009,06,19,03,17,11.20
2009,06,19,03,18,11.20
2009,06,19,03,19,11.20
2009,06,19,03,20,11.10
2009,06,19,03,21,11.10
2009,06,19,03,22,11.10
2009,06,19,03,23,11.10
2009,06,19,03,24,11.10
2009,06,19,03,25,11.10
2009,06,19,03,26,11.10
2009,06,19,03,27,11.10
2009,06,19,03,28,11.00
2009,06,19,03,29,11.00
2009,06,19,03,30,11.00
2009,06,19,03,31,11.00
2009,06,19,03,32,11.00
2009,06,19,03,33,11.00
2009,06,19,03,34,11.00
2009,06,19,03,35,11.00
2009,06,19,03,36,11.00
2009,06,19,03,37,11.00
2009,06,19,03,38,11.00
2009,06,19,03,39,11.00
2009,06,19,03,40,11.00
2009,06,19,03,41,11.00
2009,06,19,03,42,11.00
2009,06,19,03,43,11.00
2009,06,19,03,44,11.00
2009,06,19,03,45,11.00
2009,06,19,03,46,11.10
2009,06,19,03,47,11.10
2009,06,19,03,48,11.10
2009,06,19,03,49,11.10
2009,06,19,03,50,11.10
2009,06,19,03,51,11.10
2009,06,19,03,52,11.10
2009,06,19,03,53,11.10
2009,06,19,03,54,11.10
2009,06,19,03,55,11.20
2009,06,19,03,56,11.20
2009,06,19,03,57,11.20
2009,06,19,03,58,11.20
2009,06,19,03,59,11.20
2009,06,19,04,00,11.30
2009,06,19,04,01,11.30
2009,06,19,04,02,11.30
2009,06,19,04,03,11.30
2009,06,19,04,04,11.30
2009,06,19,04,05,11.30
2009,06,19,04,06,11.30
2009,06,19,04,07,11.30
2009,06,19,04,08,11.30
2009,06,19,04,09,11.40
2009,06,19,04,10,11.40
2009,06,19,04,11,11.40
2009,06,19,04,12,11.40
2009,06,19,04,13,11.40
2009,06,19,04,14,11.40
2009,06,19,04,15,11.40
2009,06,19,04,16,11.40
2009,06,19,04,17,11.50
2009,06,19,04,18,11.50
2009,06,19,04,19,11.50
2009,06,19,04,20,11.50
2009,06,19,04,21,11.50
2009,06,19,04,22,11.50
2009,06,19,04,23,11.50
2009,06,19,04,24,11.60
2009,06,19,04,25,11.60
2009,06,19,04,26,11.60
2009,06,19,04,27,11.60
2009,06,19,04,28,11.60
2009,06,19,04,29,11.60
2009,06,19,04,30,11.60
2009,06,19,04,31,11.60
2009,06,19,04,32,11.50
2009,06,19,04,33,11.50
2009,06,19,04,34,11.40
2009,06,19,04,35,11.40
2009,06,19,04,36,11.40
2009,06,19,04,37,11.40
2009,06,19,04,38,11.40
2009,06,19,04,39,11.40
2009,06,19,04,40,11.40
2009,06,19,04,41,11.40
2009,06,19,04,42,11.40
2009,06,19,04,43,11.40
2009,06,19,04,44,11.40
2009,06,19,04,45,11.40
2009,06,19,04,46,11.40
2009,06,19,04,47,11.50
2009,06,19,04,48,11.50
2009,06,19,04,49,11.50
2009,06,19,04,50,11.50
2009,06,19,04,51,11.50
2009,06,19,04,52,11.50
2009,06,19,04,53,11.60
2009,06,19,04,54,11.60
2009,06,19,04,55,11.60
2009,06,19,04,56,11.60
2009,06,19,04,57,11.60
2009,06,19,04,58,11.60
2009,06,19,04,59,11.60
2009,06,19,05,00,11.60
2009,06,19,05,01,11.60
2009,06,19,05,02,11.60
2009,06,19,05,03,11.60
2009,06,19,05,04,11.60
2009,06,19,05,05,11.60
2009,06,19,05,06,11.60
2009,06,19,05,07,11.60
2009,06,19,05,08,11.60
2009,06,19,05,09,11.60
2009,06,19,05,10,11.60
2009,06,19,05,11,11.60
2009,06,19,05,12,11.60
2009,06,19,05,13,11.60
2009,06,19,05,14,11.60
2009,06,19,05,15,11.60
2009,06,19,05,16,11.60
2009,06,19,05,17,11.60
2009,06,19,05,18,11.60
2009,06,19,05,19,11.60
2009,06,19,05,20,11.60
2009,06,19,05,21,11.60
2009,06,19,05,22,11.50
2009,06,19,05,23,11.60
2009,06,19,05,24,11.50
2009,06,19,05,25,11.50
2009,06,19,05,26,11.50
2009,06,19,05,27,11.50
2009,06,19,05,28,11.50
2009,06,19,05,29,11.50
2009,06,19,05,30,11.50
2009,06,19,05,31,11.50
2009,06,19,05,32,11.50
2009,06,19,05,33,11.50
2009,06,19,05,34,11.50
2009,06,19,05,35,11.50
2009,06,19,05,36,11.50
2009,06,19,05,37,11.60
2009,06,19,05,38,11.60
2009,06,19,05,39,11.60
2009,06,19,05,40,11.60
2009,06,19,05,41,11.60
2009,06,19,05,42,11.60
2009,06,19,05,43,11.60
2009,06,19,05,44,11.60
2009,06,19,05,45,11.70
2009,06,19,05,46,11.70
2009,06,19,05,47,11.70
2009,06,19,05,48,11.70
2009,06,19,05,49,11.70
2009,06,19,05,50,11.70
2009,06,19,05,51,11.70
2009,06,19,05,52,11.70
2009,06,19,05,53,11.70
2009,06,19,05,54,11.70
2009,06,19,05,55,11.70
2009,06,19,05,56,11.70
2009,06,19,05,57,11.70
2009,06,19,05,58,11.70
2009,06,19,05,59,11.70
2009,06,19,06,00,11.70
2009,06,19,06,01,11.70
2009,06,19,06,02,11.70
2009,06,19,06,03,11.70
2009,06,19,06,04,11.70
2009,06,19,06,05,11.70
2009,06,19,06,06,11.70
2009,06,19,06,07,11.70
2009,06,19,06,08,11.70
2009,06,19,06,09,11.70
2009,06,19,06,10,11.70
2009,06,19,06,11,11.70
2009,06,19,06,12,11.70
2009,06,19,06,13,11.70
2009,06,19,06,14,11.70
2009,06,19,06,15,11.70
2009,06,19,06,16,11.70
2009,06,19,06,17,11.70
2009,06,19,06,18,11.70
2009,06,19,06,19,11.70
2009,06,19,06,20,11.70
2009,06,19,06,21,11.70
2009,06,19,06,22,11.70
2009,06,19,06,23,11.70
2009,06,19,06,24,11.70
2009,06,19,06,25,11.70
2009,06,19,06,26,11.80
2009,06,19,06,27,11.80
2009,06,19,06,28,11.80
2009,06,19,06,29,11.80
2009,06,19,06,30,11.80
2009,06,19,06,31,11.80
2009,06,19,06,32,11.80
2009,06,19,06,33,11.90
2009,06,19,06,34,11.90
2009,06,19,06,35,11.90
2009,06,19,06,36,11.90
2009,06,19,06,37,11.90
2009,06,19,06,38,11.90
2009,06,19,06,39,11.90
2009,06,19,06,40,11.90
2009,06,19,06,41,12.00
2009,06,19,06,42,12.00
2009,06,19,06,43,12.00
2009,06,19,06,44,12.10
2009,06,19,06,45,12.10
2009,06,19,06,46,12.10
2009,06,19,06,47,12.10
2009,06,19,06,48,12.10
2009,06,19,06,49,12.20
2009,06,19,06,50,12.20
2009,06,19,06,51,12.20
2009,06,19,06,52,12.30
2009,06,19,06,53,12.30
2009,06,19,06,54,12.30
2009,06,19,06,55,12.30
2009,06,19,06,56,12.40
2009,06,19,06,57,12.40
2009,06,19,06,58,12.40
2009,06,19,06,59,12.40
2009,06,19,07,00,12.40
2009,06,19,07,01,12.50
2009,06,19,07,02,12.50
2009,06,19,07,03,12.50
2009,06,19,07,04,12.50
2009,06,19,07,05,12.50
2009,06,19,07,06,12.60
2009,06,19,07,07,12.60
2009,06,19,07,08,12.60
2009,06,19,07,09,12.60
2009,06,19,07,10,12.70
2009,06,19,07,11,12.70
2009,06,19,07,12,12.70
2009,06,19,07,13,12.70
2009,06,19,07,14,12.70
2009,06,19,07,15,12.80
2009,06,19,07,16,12.80
2009,06,19,07,17,12.80
2009,06,19,07,18,12.90
2009,06,19,07,19,12.90
2009,06,19,07,20,12.90
2009,06,19,07,21,13.00
2009,06,19,07,22,13.00
2009,06,19,07,23,13.00
2009,06,19,07,24,13.10
2009,06,19,07,25,13.10
2009,06,19,07,26,13.10
2009,06,19,07,27,13.20
2009,06,19,07,28,13.20
2009,06,19,07,29,13.20
2009,06,19,07,30,13.30
2009,06,19,07,31,13.30
2009,06,19,07,32,13.30
2009,06,19,07,33,13.40
2009,06,19,07,34,13.40
2009,06,19,07,35,13.40
2009,06,19,07,36,13.50
2009,06,19,07,37,13.50
2009,06,19,07,38,13.60
2009,06,19,07,39,13.60
2009,06,19,07,40,13.60
2009,06,19,07,41,13.60
2009,06,19,07,42,13.70
2009,06,19,07,43,13.70
2009,06,19,07,44,13.70
2009,06,19,07,45,13.70
2009,06,19,07,46,13.70
2009,06,19,07,47,13.80
2009,06,19,07,48,13.80
2009,06,19,07,49,13.80
2009,06,19,07,50,13.80
2009,06,19,07,51,13.80
2009,06,19,07,52,13.80
2009,06,19,07,53,13.80
2009,06,19,07,54,13.90
2009,06,19,07,55,13.90
2009,06,19,07,56,13.90
2009,06,19,07,57,13.90
2009,06,19,07,58,13.90
2009,06,19,07,59,13.90
2009,06,19,08,00,13.90
2009,06,19,08,01,13.90
2009,06,19,08,02,13.90
2009,06,19,08,03,13.90
2009,06,19,08,04,13.90
2009,06,19,08,05,13.90
2009,06,19,08,06,13.90
2009,06,19,08,07,14.00
2009,06,19,08,08,14.00
2009,06,19,08,09,14.00
2009,06,19,08,10,14.10
2009,06,19,08,11,14.10
2009,06,19,08,12,14.10
2009,06,19,08,13,14.20
2009,06,19,08,14,14.20
2009,06,19,08,15,14.20
2009,06,19,08,16,14.30
2009,06,19,08,17,14.30
2009,06,19,08,18,14.30
2009,06,19,08,19,14.30
2009,06,19,08,20,14.40
2009,06,19,08,21,14.40
2009,06,19,08,22,14.40
2009,06,19,08,23,14.50
2009,06,19,08,24,14.50
2009,06,19,08,25,14.50
2009,06,19,08,26,14.60
2009,06,19,08,27,14.60
2009,06,19,08,28,14.60
2009,06,19,08,29,14.60
2009,06,19,08,30,14.60
2009,06,19,08,31,14.70
2009,06,19,08,32,14.70
2009,06,19,08,33,14.80
2009,06,19,08,34,14.90
2009,06,19,08,35,14.90
2009,06,19,08,36,15.00
2009,06,19,08,37,15.10
2009,06,19,08,38,15.10
2009,06,19,08,39,15.20
2009,06,19,08,40,15.20
2009,06,19,08,41,15.30
2009,06,19,08,42,15.30
2009,06,19,08,43,15.40
2009,06,19,08,44,15.40
2009,06,19,08,45,15.50
2009,06,19,08,46,15.50
2009,06,19,08,47,15.60
2009,06,19,08,48,15.60
2009,06,19,08,49,15.70
2009,06,19,08,50,15.70
2009,06,19,08,51,15.80
2009,06,19,08,52,15.80
2009,06,19,08,53,15.90
2009,06,19,08,54,15.90
2009,06,19,08,55,15.90
2009,06,19,08,56,16.00
2009,06,19,08,57,16.10
2009,06,19,08,58,16.10
2009,06,19,08,59,16.10
2009,06,19,09,00,16.20
2009,06,19,09,01,16.20
2009,06,19,09,02,16.20
2009,06,19,09,03,16.30
2009,06,19,09,04,16.30
2009,06,19,09,05,16.30
2009,06,19,09,06,16.40
2009,06,19,09,07,16.40
2009,06,19,09,08,16.40
2009,06,19,09,09,16.40
2009,06,19,09,10,16.40
2009,06,19,09,11,16.40
2009,06,19,09,12,16.40
2009,06,19,09,13,16.40
2009,06,19,09,14,16.40
2009,06,19,09,15,16.40
2009,06,19,09,16,16.50
2009,06,19,09,17,16.50
2009,06,19,09,18,16.50
2009,06,19,09,19,16.50
2009,06,19,09,20,16.50
2009,06,19,09,21,16.50
2009,06,19,09,22,16.50
2009,06,19,09,23,16.50
2009,06,19,09,24,16.60
2009,06,19,09,25,16.60
2009,06,19,09,26,16.60
2009,06,19,09,27,16.60
2009,06,19,09,28,16.60
2009,06,19,09,29,16.60
2009,06,19,09,30,16.70
2009,06,19,09,31,16.70
2009,06,19,09,32,16.70
2009,06,19,09,33,16.80
2009,06,19,09,34,16.80
2009,06,19,09,35,16.80
2009,06,19,09,36,16.80
2009,06,19,09,37,16.90
2009,06,19,09,38,16.90
2009,06,19,09,39,17.00
2009,06,19,09,40,17.10
2009,06,19,09,41,17.20
2009,06,19,09,42,17.20
2009,06,19,09,43,17.20
2009,06,19,09,44,17.20
2009,06,19,09,45,17.20
2009,06,19,09,46,17.30
2009,06,19,09,47,17.30
2009,06,19,09,48,17.20
2009,06,19,09,49,17.20
2009,06,19,09,50,17.20
2009,06,19,09,51,17.20
2009,06,19,09,52,17.20
2009,06,19,09,53,17.20
2009,06,19,09,54,17.20
2009,06,19,09,55,17.20
2009,06,19,09,56,17.20
2009,06,19,09,57,17.10
2009,06,19,09,58,17.10
2009,06,19,09,59,17.10
2009,06,19,10,00,17.10
2009,06,19,10,01,17.10
2009,06,19,10,02,17.00
2009,06,19,10,03,17.00
2009,06,19,10,04,17.10
2009,06,19,10,05,17.10
2009,06,19,10,06,17.10
2009,06,19,10,07,17.10
2009,06,19,10,08,17.10
2009,06,19,10,09,17.10
2009,06,19,10,10,17.00
2009,06,19,10,11,17.00
2009,06,19,10,12,16.90
2009,06,19,10,13,16.80
2009,06,19,10,14,16.70
2009,06,19,10,15,16.70
2009,06,19,10,16,16.60
2009,06,19,10,17,16.50
2009,06,19,10,18,16.60
2009,06,19,10,19,16.60
2009,06,19,10,20,16.60
2009,06,19,10,21,16.70
2009,06,19,10,22,16.80
2009,06,19,10,23,16.80
2009,06,19,10,24,16.70
2009,06,19,10,25,16.70
2009,06,19,10,26,16.70
2009,06,19,10,27,16.80
2009,06,19,10,28,16.80
2009,06,19,10,29,16.80
2009,06,19,10,30,16.80
2009,06,19,10,31,16.80
2009,06,19,10,32,16.80
2009,06,19,10,33,16.80
2009,06,19,10,34,16.90
2009,06,19,10,35,16.90
2009,06,19,10,36,16.90
2009,06,19,10,37,16.90
2009,06,19,10,38,17.00
2009,06,19,10,39,17.00
2009,06,19,10,40,16.90
2009,06,19,10,41,16.90
2009,06,19,10,42,16.90
2009,06,19,10,43,16.90
2009,06,19,10,44,16.90
2009,06,19,10,45,16.90
2009,06,19,10,46,16.90
2009,06,19,10,47,16.90
2009,06,19,10,48,17.00
2009,06,19,10,49,17.00
2009,06,19,10,50,17.00
2009,06,19,10,51,17.00
2009,06,19,10,52,17.00
2009,06,19,10,53,16.90
2009,06,19,10,54,16.90
2009,06,19,10,55,16.90
2009,06,19,10,56,16.90
2009,06,19,10,57,16.90
2009,06,19,10,58,16.90
2009,06,19,10,59,16.80
2009,06,19,11,00,16.80
2009,06,19,11,01,16.80
2009,06,19,11,02,16.80
2009,06,19,11,03,16.80
2009,06,19,11,04,16.80
2009,06,19,11,05,16.80
2009,06,19,11,06,16.80
2009,06,19,11,07,16.80
2009,06,19,11,08,16.80
2009,06,19,11,09,16.90
2009,06,19,11,10,16.90
2009,06,19,11,11,16.90
2009,06,19,11,12,16.90
2009,06,19,11,13,16.90
2009,06,19,11,14,16.90
2009,06,19,11,15,16.90
2009,06,19,11,16,16.90
2009,06,19,11,17,16.90
2009,06,19,11,18,16.90
2009,06,19,11,19,16.90
2009,06,19,11,20,16.90
2009,06,19,11,21,16.90
2009,06,19,11,22,16.90
2009,06,19,11,23,17.00
2009,06,19,11,24,17.10
2009,06,19,11,25,17.10
2009,06,19,11,26,17.10
2009,06,19,11,27,17.10
2009,06,19,11,28,17.10
2009,06,19,11,29,17.10
2009,06,19,11,30,17.00
2009,06,19,11,31,17.00
2009,06,19,11,32,16.90
2009,06,19,11,33,16.90
2009,06,19,11,34,16.90
2009,06,19,11,35,16.90
2009,06,19,11,36,16.90
2009,06,19,11,37,16.90
2009,06,19,11,38,16.90
2009,06,19,11,39,16.90
2009,06,19,11,40,16.90
2009,06,19,11,41,16.90
2009,06,19,11,42,16.90
2009,06,19,11,43,16.90
2009,06,19,11,44,16.90
2009,06,19,11,45,16.90
2009,06,19,11,46,17.00
2009,06,19,11,47,17.00
2009,06,19,11,48,17.00
2009,06,19,11,49,17.00
2009,06,19,11,50,17.10
2009,06,19,11,51,17.10
2009,06,19,11,52,17.10
2009,06,19,11,53,17.20
2009,06,19,11,54,17.20
2009,06,19,11,55,17.20
2009,06,19,11,56,17.20
2009,06,19,11,57,17.20
2009,06,19,11,58,17.20
2009,06,19,11,59,17.20
2009,06,19,12,00,17.10
2009,06,19,12,01,17.10
2009,06,19,12,02,17.10
2009,06,19,12,03,17.10
2009,06,19,12,04,17.10
2009,06,19,12,05,17.10
2009,06,19,12,06,17.10
2009,06,19,12,07,17.10
2009,06,19,12,08,17.20
2009,06,19,12,09,17.30
2009,06,19,12,10,17.30
2009,06,19,12,11,17.30
2009,06,19,12,12,17.40
2009,06,19,12,13,17.40
2009,06,19,12,14,17.40
2009,06,19,12,15,17.30
2009,06,19,12,16,17.40
2009,06,19,12,17,17.40
2009,06,19,12,18,17.40
2009,06,19,12,19,17.40
2009,06,19,12,20,17.50
2009,06,19,12,21,17.60
2009,06,19,12,22,17.70
2009,06,19,12,23,17.70
2009,06,19,12,24,17.60
2009,06,19,12,25,17.60
2009,06,19,12,26,17.60
2009,06,19,12,27,17.60
2009,06,19,12,28,17.60
2009,06,19,12,29,17.60
2009,06,19,12,30,17.60
2009,06,19,12,31,17.50
2009,06,19,12,32,17.40
2009,06,19,12,33,17.40
2009,06,19,12,34,17.30
2009,06,19,12,35,17.30
2009,06,19,12,36,17.20
2009,06,19,12,37,17.30
2009,06,19,12,38,17.30
2009,06,19,12,39,17.20
2009,06,19,12,40,17.20
2009,06,19,12,41,17.20
2009,06,19,12,42,17.20
2009,06,19,12,43,17.20
2009,06,19,12,44,17.20
2009,06,19,12,45,17.20
2009,06,19,12,46,17.20
2009,06,19,12,47,17.30
2009,06,19,12,48,17.30
2009,06,19,12,49,17.30
2009,06,19,12,50,17.40
2009,06,19,12,51,17.40
2009,06,19,12,52,17.50
2009,06,19,12,53,17.50
2009,06,19,12,54,17.60
2009,06,19,12,55,17.60
2009,06,19,12,56,17.60
2009,06,19,12,57,17.60
2009,06,19,12,58,17.70
2009,06,19,12,59,17.80
2009,06,19,13,00,17.80
2009,06,19,13,01,17.90
2009,06,19,13,02,18.00
2009,06,19,13,03,18.10
2009,06,19,13,04,18.20
2009,06,19,13,05,18.20
2009,06,19,13,06,18.30
2009,06,19,13,07,18.30
2009,06,19,13,08,18.30
2009,06,19,13,09,18.30
2009,06,19,13,10,18.30
2009,06,19,13,11,18.30
2009,06,19,13,12,18.30
2009,06,19,13,13,18.30
2009,06,19,13,14,18.30
2009,06,19,13,15,18.30
2009,06,19,13,16,18.20
2009,06,19,13,17,18.20
2009,06,19,13,18,18.10
2009,06,19,13,19,18.10
2009,06,19,13,20,18.00
2009,06,19,13,21,17.90
2009,06,19,13,22,17.90
2009,06,19,13,23,17.90
2009,06,19,13,24,17.90
2009,06,19,13,25,17.90
2009,06,19,13,26,17.90
2009,06,19,13,27,17.90
2009,06,19,13,28,17.80
2009,06,19,13,29,17.80
2009,06,19,13,30,17.80
2009,06,19,13,31,17.80
2009,06,19,13,32,17.80
2009,06,19,13,33,17.80
2009,06,19,13,34,17.80
2009,06,19,13,35,17.90
2009,06,19,13,36,18.00
2009,06,19,13,37,18.10
2009,06,19,13,38,18.20
2009,06,19,13,39,18.20
2009,06,19,13,40,18.20
2009,06,19,13,41,18.30
2009,06,19,13,42,18.40
2009,06,19,13,43,18.50
2009,06,19,13,44,18.60
2009,06,19,13,45,18.70
2009,06,19,13,46,18.70
2009,06,19,13,47,18.60
2009,06,19,13,48,18.50
2009,06,19,13,49,18.40
2009,06,19,13,50,18.40
2009,06,19,13,51,18.30
2009,06,19,13,52,18.30
2009,06,19,13,53,18.30
2009,06,19,13,54,18.40
2009,06,19,13,55,18.40
2009,06,19,13,56,18.40
2009,06,19,13,57,18.50
2009,06,19,13,58,18.50
2009,06,19,13,59,18.60
2009,06,19,14,00,18.60
2009,06,19,14,01,18.70
2009,06,19,14,02,18.70
2009,06,19,14,03,18.70
2009,06,19,14,04,18.70
2009,06,19,14,05,18.70
2009,06,19,14,06,18.60
2009,06,19,14,07,18.60
2009,06,19,14,08,18.60
2009,06,19,14,09,18.50
2009,06,19,14,10,18.30
2009,06,19,14,11,18.20
2009,06,19,14,12,18.10
2009,06,19,14,13,18.10
2009,06,19,14,14,18.00
2009,06,19,14,15,18.00
2009,06,19,14,16,17.90
2009,06,19,14,17,17.90
2009,06,19,14,18,17.80
2009,06,19,14,19,17.90
2009,06,19,14,20,17.80
2009,06,19,14,21,17.90
2009,06,19,14,22,17.90
2009,06,19,14,23,17.90
2009,06,19,14,24,17.90
2009,06,19,14,25,17.90
2009,06,19,14,26,18.00
2009,06,19,14,27,18.00
2009,06,19,14,28,17.90
2009,06,19,14,29,17.80
2009,06,19,14,30,17.80
2009,06,19,14,31,17.70
2009,06,19,14,32,17.70
2009,06,19,14,33,17.70
2009,06,19,14,34,17.70
2009,06,19,14,35,17.60
2009,06,19,14,36,17.70
2009,06,19,14,37,17.70
2009,06,19,14,38,17.70
2009,06,19,14,39,17.70
2009,06,19,14,40,17.70
2009,06,19,14,41,17.80
2009,06,19,14,42,17.80
2009,06,19,14,43,17.80
2009,06,19,14,44,17.80
2009,06,19,14,45,17.80
2009,06,19,14,46,17.80
2009,06,19,14,47,17.80
2009,06,19,14,48,17.90
2009,06,19,14,49,17.90
2009,06,19,14,50,17.90
2009,06,19,14,51,17.80
2009,06,19,14,52,17.80
2009,06,19,14,53,17.80
2009,06,19,14,54,17.80
2009,06,19,14,55,17.80
2009,06,19,14,56,17.80
2009,06,19,14,57,17.80
2009,06,19,14,58,17.80
2009,06,19,14,59,17.90
2009,06,19,15,00,17.90
2009,06,19,15,01,17.80
2009,06,19,15,02,17.80
2009,06,19,15,03,17.80
2009,06,19,15,04,17.80
2009,06,19,15,05,17.80
2009,06,19,15,06,17.80
2009,06,19,15,07,17.80
2009,06,19,15,08,17.80
2009,06,19,15,09,17.90
2009,06,19,15,10,17.90
2009,06,19,15,11,17.90
2009,06,19,15,12,17.90
2009,06,19,15,13,18.00
2009,06,19,15,14,18.00
2009,06,19,15,15,18.00
2009,06,19,15,16,18.00
2009,06,19,15,17,18.00
2009,06,19,15,18,18.00
2009,06,19,15,19,18.00
2009,06,19,15,20,18.00
2009,06,19,15,21,18.00
2009,06,19,15,22,17.90
2009,06,19,15,23,18.00
2009,06,19,15,24,18.00
2009,06,19,15,25,18.00
2009,06,19,15,26,18.10
2009,06,19,15,27,18.20
2009,06,19,15,28,18.30
2009,06,19,15,29,18.30
2009,06,19,15,30,18.40
2009,06,19,15,31,18.40
2009,06,19,15,32,18.40
2009,06,19,15,33,18.40
2009,06,19,15,34,18.40
2009,06,19,15,35,18.40
2009,06,19,15,36,18.50
2009,06,19,15,37,18.50
2009,06,19,15,38,18.60
2009,06,19,15,39,18.70
2009,06,19,15,40,18.80
2009,06,19,15,41,18.90
2009,06,19,15,42,18.90
2009,06,19,15,43,18.90
2009,06,19,15,44,18.90
2009,06,19,15,45,19.00
2009,06,19,15,46,19.00
2009,06,19,15,47,19.00
2009,06,19,15,48,19.10
2009,06,19,15,49,19.10
2009,06,19,15,50,19.20
2009,06,19,15,51,19.20
2009,06,19,15,52,19.10
2009,06,19,15,53,19.10
2009,06,19,15,54,19.10
2009,06,19,15,55,19.00
2009,06,19,15,56,19.00
2009,06,19,15,57,19.00
2009,06,19,15,58,19.00
2009,06,19,15,59,19.00
2009,06,19,16,00,18.90
2009,06,19,16,01,18.90
2009,06,19,16,02,18.80
2009,06,19,16,03,18.70
2009,06,19,16,04,18.70
2009,06,19,16,05,18.70
2009,06,19,16,06,18.60
2009,06,19,16,07,18.70
2009,06,19,16,08,18.70
2009,06,19,16,09,18.70
2009,06,19,16,10,18.70
2009,06,19,16,11,18.70
2009,06,19,16,12,18.70
2009,06,19,16,13,18.60
2009,06,19,16,14,18.60
2009,06,19,16,15,18.50
2009,06,19,16,16,18.50
2009,06,19,16,17,18.40
2009,06,19,16,18,18.40
2009,06,19,16,19,18.30
2009,06,19,16,20,18.30
2009,06,19,16,21,18.30
2009,06,19,16,22,18.30
2009,06,19,16,23,18.30
2009,06,19,16,24,18.30
2009,06,19,16,25,18.30
2009,06,19,16,26,18.30
2009,06,19,16,27,18.30
2009,06,19,16,28,18.30
2009,06,19,16,29,18.20
2009,06,19,16,30,18.20
2009,06,19,16,31,18.10
2009,06,19,16,32,18.10
2009,06,19,16,33,18.10
2009,06,19,16,34,18.10
2009,06,19,16,35,18.10
2009,06,19,16,36,18.10
2009,06,19,16,37,18.10
2009,06,19,16,38,18.00
2009,06,19,16,39,18.00
2009,06,19,16,40,18.00
2009,06,19,16,41,18.10
2009,06,19,16,42,18.10
2009,06,19,16,43,18.10
2009,06,19,16,44,18.10
2009,06,19,16,45,18.00
2009,06,19,16,46,18.00
2009,06,19,16,47,18.00
2009,06,19,16,48,18.00
2009,06,19,16,49,18.00
2009,06,19,16,50,18.00
2009,06,19,16,51,18.00
2009,06,19,16,52,18.00
2009,06,19,16,53,17.90
2009,06,19,16,54,17.90
2009,06,19,16,55,17.90
2009,06,19,16,56,17.90
2009,06,19,16,57,17.90
2009,06,19,16,58,17.90
2009,06,19,16,59,17.90
2009,06,19,17,00,17.90
2009,06,19,17,01,17.90
2009,06,19,17,02,17.80
2009,06,19,17,03,17.80
2009,06,19,17,04,17.90
2009,06,19,17,05,17.90
2009,06,19,17,06,17.90
2009,06,19,17,07,17.90
2009,06,19,17,08,17.90
2009,06,19,17,09,17.90
2009,06,19,17,10,17.90
2009,06,19,17,11,17.90
2009,06,19,17,12,17.90
2009,06,19,17,13,17.90
2009,06,19,17,14,17.90
2009,06,19,17,15,17.90
2009,06,19,17,16,18.00
2009,06,19,17,17,18.00
2009,06,19,17,18,18.00
2009,06,19,17,19,18.00